Regional Weather Roundup
Issued by NWS Albany, NY

Home | Current Version | Previous Version | Text Only | Print | Product List | Glossary On
Versions: 1 2 3 4 5 6 7 8 9 10 11 12 13 14 15 16 17 18 19 20 21 22 23 24 25 26 27 28 29 30 31 32 33 34 35 36 37 38 39 40 41 42 43 44 45 46 47 48 49 50
112
ASUS41 KALY 191010
RWRALY

NEW YORK STATE HOURLY WEATHER ROUNDUP
NATIONAL WEATHER SERVICE ALBANY NY
600 AM EDT THU OCT 19 2017

NOTE: "FAIR" INDICATES FEW OR NO CLOUDS BELOW 12,000 FEET WITH NO
SIGNIFICANT WEATHER AND/OR NO OBSTRUCTIONS TO VISIBILITY.

NYZ032-033-038>043-046>054-057>066-NYZ062>081-082-084-191100-
EAST


CITY           SKY/WX    TMP DP  RH WIND       PRES   REMARKS
ALBANY         PTCLDY    48  45  89 CALM      30.21S
GLENS FALLS    PTCLDY    37  35  92 CALM      30.18F FOG
POUGHKEEPSIE   CLEAR     41  39  93 CALM      30.23S
NEWBURGH       CLEAR     46  45  93 CALM      30.25S
MONTGOMERY     CLEAR     41  41 100 S3        30.24R FOG
WHITE PLAINS   PTCLDY    48  44  86 CALM      30.24S
ISLIP          PTCLDY    50  49  96 CALM      30.26S
NEW YORK CITY  PTCLDY    58  46  64 SW7       30.25S
CENTRAL PARK   CLEAR     56  45  66 W6        30.28S
$$

NYZ005>009-017-018-044>046-055-056-191100-
CENTRAL


CITY           SKY/WX    TMP DP  RH WIND       PRES   REMARKS
FULTON           N/A    N/A N/A N/A MISG      30.12S
SYRACUSE       CLEAR     51  42  71 SE6       30.12F
ROME           CLEAR     47  43  86 E8        30.17S
ELMIRA         CLEAR     37  37 100 CALM      30.17S
BINGHAMTON     CLEAR     50  40  68 S6        30.18S
MONTICELLO     CLEAR     40  39  97 CALM      30.25S
$$

NYZ026>034-041>043-087-191100-
NORTH


CITY           SKY/WX    TMP DP  RH WIND       PRES   REMARKS
WATERTOWN      CLEAR     57  44  62 S6        30.08F
FORT DRUM      NOT AVBL
OGDENSBURG     FAIR      52  45  79 S7        30.05F
MASSENA        CLEAR     53  45  74 SW10      30.06S
SARANAC LAKE   CLEAR     47  42  83 W5        30.11F
PLATTSBURGH    CLEAR     38  37  97 SW3       30.09F
$$

NYZ001>004-010>016-019>021-085-191100-
WEST


CITY           SKY/WX    TMP DP  RH WIND       PRES   REMARKS
NIAGARA FALLS    N/A     58  46  64 SW10      30.06F
BUFFALO        CLEAR     55  41  59 SW14      30.08S
DUNKIRK        CLEAR     55  41  59 S13       30.11S
JAMESTOWN      CLEAR     45  38  76 S7        30.15F
WELLSVILLE     CLEAR     52  37  56 SW9       30.18S
ROCHESTER      CLEAR     55  42  61 SW14      30.09F
PENN YAN       CLEAR     54  41  61 SW10      30.14S
$$

             KEY
       WCI = WIND CHILL INDEX
       VSB = VISIBILITY
       HX  = HEAT INDEX
$$




USA.gov is the U.S. government's official web portal to all federal, state and local government web resources and services.